FW6974 Weather Reports


Display with metric or nautical units.
time (UTC)temp
F
wind
direction
speed
MPH
gust
MPH
rain 1hr
in
rain 24hr
in
rain mn
in
humidity
%
barometer
mb
20260508205623 71 302 2.0 4.0 0.00 0.00 0.00 40 1010.7
20260508205119 70 7 4.0 6.0 0.00 0.00 0.00 41 1010.8
20260508204615 70 336 5.0 5.0 0.00 0.00 0.00 42 1010.8
20260508204111 70 55 2.0 3.0 0.00 0.00 0.00 41 1011.1
20260508203608 71 357 2.0 4.0 0.00 0.00 0.00 42 1011.0
20260508203104 72 346 2.0 5.0 0.00 0.00 0.00 39 1011.0
20260508202600 71 295 2.0 4.0 0.00 0.00 0.00 41 1011.3
20260508202058 71 357 4.0 4.0 0.00 0.00 0.00 43 1011.1
20260508201554 70 323 3.0 5.0 0.00 0.00 0.00 42 1011.2
20260508201051 70 342 3.0 5.0 0.00 0.00 0.00 41 1011.2
20260508200548 70 348 2.0 3.0 0.00 0.00 0.00 42 1011.5
20260508200043 70 156 0.0 2.0 0.00 0.00 0.00 43 1011.5
20260508195540 71 271 2.0 5.0 0.00 0.00 0.00 41 1011.6
20260508195036 71 184 2.0 5.0 0.00 0.00 0.00 41 1011.6
20260508194534 71 285 2.0 4.0 0.00 0.00 0.00 42 1011.6
20260508194031 71 24 2.0 4.0 0.00 0.00 0.00 41 1011.7
20260508193527 72 298 1.0 6.0 0.00 0.00 0.00 39 1011.7
20260508193024 74 165 2.0 4.0 0.00 0.00 0.00 38 1011.5
20260508192521 73 157 0.0 4.0 0.00 0.00 0.00 39 1011.6
20260508192018 72 32 2.0 5.0 0.00 0.00 0.00 39 1011.8
20260508191515 73 12 4.0 4.0 0.00 0.00 0.00 41 1011.9
20260508191011 71 11 2.0 7.0 0.00 0.00 0.00 43 1012.1
20260508190509 72 358 5.0 6.0 0.00 0.00 0.00 39 1011.9
20260508190004 72 29 5.0 6.0 0.00 0.00 0.00 40 1012.0
20260508185502 73 2 3.0 5.0 0.00 0.00 0.00 38 1012.0
20260508185000 73 337 2.0 4.0 0.00 0.00 0.00 42 1012.2
20260508184457 73 22 0.0 5.0 0.00 0.00 0.00 42 1012.3
20260508183953 71 30 2.0 5.0 0.00 0.00 0.00 39 1012.7
20260508183450 71 336 3.0 5.0 0.00 0.00 0.00 38 1012.5
20260508182945 71 348 4.0 5.0 0.00 0.00 0.00 40 1012.5
20260508182443 72 266 3.0 5.0 0.00 0.00 0.00 39 1012.8
20260508181938 71 12 2.0 7.0 0.00 0.00 0.00 40 1012.8
20260508181435 71 328 4.0 5.0 0.00 0.00 0.00 41 1012.8
20260508180933 70 17 3.0 6.0 0.00 0.00 0.00 40 1012.7
20260508180429 69 336 2.0 5.0 0.00 0.00 0.00 39 1013.1
20260508175925 70 276 2.0 5.0 0.00 0.00 0.00 42 1013.0
20260508175422 69 333 2.0 3.0 0.00 0.00 0.00 43 1013.1
20260508174920 68 353 4.0 7.0 0.00 0.00 0.00 41 1013.2
20260508174417 70 19 4.0 4.0 0.00 0.00 0.00 43 1013.0
20260508173913 70 291 7.0 9.0 0.00 0.00 0.00 41 1013.3
20260508173411 71 11 3.0 6.0 0.00 0.00 0.00 41 1013.5
20260508172906 70 28 2.0 7.0 0.00 0.00 0.00 42 1013.6
20260508172405 70 8 4.0 9.0 0.00 0.00 0.00 42 1013.7
20260508171900 71 221 2.0 5.0 0.00 0.00 0.00 46 1013.8
20260508171356 71 306 2.0 6.0 0.00 0.00 0.00 45 1013.8
20260508170853 71 21 1.0 5.0 0.00 0.00 0.00 46 1013.7
20260508170351 70 1 3.0 6.0 0.00 0.00 0.00 44 1013.9
20260508165847 70 351 2.0 3.0 0.00 0.00 0.00 44 1014.2
20260508165345 70 15 0.0 3.0 0.00 0.00 0.00 47 1014.1
20260508164841 70 290 5.0 5.0 0.00 0.00 0.00 45 1014.5
20260508164338 70 306 1.0 5.0 0.00 0.00 0.00 43 1014.5
20260508163836 69 335 3.0 4.0 0.00 0.00 0.00 48 1014.7
20260508163333 69 348 4.0 7.0 0.00 0.00 0.00 47 1014.6
20260508162823 69 294 1.0 5.0 0.00 0.00 0.00 45 1014.9
20260508162320 68 330 0.0 6.0 0.00 0.00 0.00 45 1015.0
20260508161818 68 3 5.0 6.0 0.00 0.00 0.00 45 1014.8
20260508161314 69 31 0.0 5.0 0.00 0.00 0.00 44 1014.9
20260508160812 68 18 2.0 8.0 0.00 0.00 0.00 45 1015.0
20260508160310 69 1 2.0 4.0 0.00 0.00 0.00 44 1015.1
20260508155806 69 0 4.0 5.0 0.00 0.00 0.00 44 1015.1
20260508155306 68 348 2.0 6.0 0.00 0.00 0.00 47 1015.1
20260508154800 68 354 4.0 5.0 0.00 0.00 0.00 46 1015.2
20260508154258 68 279 4.0 5.0 0.00 0.00 0.00 44 1015.3
20260508153754 67 21 2.0 6.0 0.00 0.00 0.00 44 1015.3
20260508153252 67 25 2.0 10.0 0.00 0.00 0.00 47 1015.5
20260508152748 68 322 0.0 6.0 0.00 0.00 0.00 49 1015.5
20260508152244 67 14 2.0 4.0 0.00 0.00 0.00 47 1015.7
20260508151740 66 356 3.0 5.0 0.00 0.00 0.00 46 1015.5
20260508151237 66 329 4.0 5.0 0.00 0.00 0.00 46 1015.7
20260508150734 67 4 3.0 5.0 0.00 0.00 0.00 47 1015.7
20260508150231 66 201 2.0 5.0 0.00 0.00 0.00 48 1015.7
20260508145726 65 336 4.0 5.0 0.00 0.00 0.00 45 1015.5
20260508145223 65 27 2.0 4.0 0.00 0.00 0.00 47 1015.7
20260508144720 65 262 3.0 6.0 0.00 0.00 0.00 47 1015.7
20260508144218 65 305 2.0 9.0 0.00 0.00 0.00 49 1015.7
20260508143715 65 339 2.0 4.0 0.00 0.00 0.00 45 1015.9
20260508143212 64 26 2.0 5.0 0.00 0.00 0.00 46 1015.6
20260508142708 63 357 2.0 4.0 0.00 0.00 0.00 48 1015.7
20260508142205 63 0 4.0 5.0 0.00 0.00 0.00 47 1015.7
20260508141701 63 4 3.0 7.0 0.00 0.00 0.00 47 1015.8
20260508141159 63 327 4.0 4.0 0.00 0.00 0.00 49 1015.8
20260508140656 63 320 4.0 6.0 0.00 0.00 0.00 47 1016.0
20260508140153 62 346 3.0 6.0 0.00 0.00 0.00 48 1015.9
20260508135649 62 8 4.0 6.0 0.00 0.00 0.00 47 1015.8
20260508135144 62 5 4.0 5.0 0.00 0.00 0.00 48 1016.0
20260508134641 63 308 2.0 3.0 0.00 0.00 0.00 48 1016.0
20260508134138 62 347 0.0 5.0 0.00 0.00 0.00 50 1016.2
20260508133635 62 246 3.0 5.0 0.00 0.00 0.00 48 1016.0
20260508133132 61 191 2.0 5.0 0.00 0.00 0.00 50 1016.1
20260508132630 61 348 3.0 4.0 0.00 0.00 0.00 48 1015.8
20260508132127 60 311 2.0 7.0 0.00 0.00 0.00 51 1016.1
20260508131622 60 358 4.0 6.0 0.00 0.00 0.00 50 1015.9
20260508131119 59 358 2.0 4.0 0.00 0.00 0.00 51 1015.8
20260508130616 59 246 3.0 5.0 0.00 0.00 0.00 51 1015.9
20260508130113 58 276 3.0 4.0 0.00 0.00 0.00 53 1016.0
20260508125614 58 268 2.0 4.0 0.00 0.00 0.00 53 1015.9
20260508125112 57 274 2.0 5.0 0.00 0.00 0.00 54 1015.7
20260508124610 57 272 2.0 5.0 0.00 0.00 0.00 56 1015.8
20260508124106 56 300 3.0 4.0 0.00 0.00 0.00 57 1015.9
20260508123605 56 351 2.0 4.0 0.00 0.00 0.00 57 1016.0
20260508123102 55 341 3.0 4.0 0.00 0.00 0.00 58 1015.9
20260508122558 55 301 4.0 4.0 0.00 0.00 0.00 61 1015.8
20260508122055 53 308 2.0 3.0 0.00 0.00 0.00 63 1015.8
20260508121554 52 327 2.0 4.0 0.00 0.00 0.00 65 1015.7
20260508121051 50 344 2.0 3.0 0.00 0.00 0.00 67 1015.9
20260508120548 49 287 1.0 4.0 0.00 0.00 0.00 70 1015.8
20260508120047 49 347 2.0 4.0 0.00 0.00 0.00 71 1015.8
20260508115544 49 297 2.0 3.0 0.00 0.00 0.00 69 1015.7
20260508115040 48 322 1.0 3.0 0.00 0.00 0.00 72 1015.6
20260508114537 46 276 0.0 4.0 0.00 0.00 0.00 76 1015.6
20260508114033 45 303 2.0 3.0 0.00 0.00 0.00 80 1015.7
20260508113531 44 303 2.0 3.0 0.00 0.00 0.00 80 1015.5
20260508113029 43 315 1.0 4.0 0.00 0.00 0.00 81 1015.7
20260508112525 43 301 2.0 3.0 0.00 0.00 0.00 82 1015.4
20260508112022 42 310 2.0 3.0 0.00 0.00 0.00 83 1015.5
20260508111519 42 295 1.0 3.0 0.00 0.00 0.00 85 1015.6
20260508111015 42 286 2.0 2.0 0.00 0.00 0.00 86 1015.4
20260508110514 42 305 2.0 2.0 0.00 0.00 0.00 86 1015.4
20260508110009 42 282 2.0 3.0 0.00 0.00 0.00 87 1015.3
20260508105505 42 276 2.0 3.0 0.00 0.00 0.00 88 1015.3
20260508105002 41 293 1.0 3.0 0.00 0.00 0.00 89 1015.3
20260508104500 41 280 3.0 3.0 0.00 0.00 0.00 90 1015.2
20260508103955 41 267 2.0 2.0 0.00 0.00 0.00 91 1015.3
20260508103453 41 273 2.0 2.0 0.00 0.00 0.00 93 1015.5
20260508102949 40 283 1.0 3.0 0.00 0.00 0.00 94 1015.2
20260508102448 40 282 2.0 2.0 0.00 0.00 0.00 94 1015.5
20260508101945 39 275 1.0 2.0 0.00 0.00 0.00 94 1015.3
20260508101443 39 293 1.0 2.0 0.00 0.00 0.00 94 1015.3
20260508100940 39 258 1.0 2.0 0.00 0.00 0.00 93 1015.4
20260508100438 39 254 0.0 2.0 0.00 0.00 0.00 94 1015.4
20260508095934 39 278 2.0 2.0 0.00 0.00 0.00 93 1015.2
20260508095432 39 299 2.0 2.0 0.00 0.00 0.00 93 1015.6
20260508094928 39 300 0.0 3.0 0.00 0.00 0.00 93 1015.1
20260508094425 39 286 2.0 2.0 0.00 0.00 0.00 93 1015.2
20260508093922 39 285 1.0 2.0 0.00 0.00 0.00 92 1015.3
20260508093420 39 276 1.0 2.0 0.00 0.00 0.00 92 1015.3
20260508092917 39 279 0.0 2.0 0.00 0.00 0.00 91 1015.2
20260508092415 39 275 2.0 2.0 0.00 0.00 0.00 91 1015.3
20260508091913 39 274 1.0 3.0 0.00 0.00 0.00 91 1015.2
20260508091409 40 262 2.0 2.0 0.00 0.00 0.00 90 1015.2
20260508090907 40 285 0.0 2.0 0.00 0.00 0.00 89 1015.1
20260508090405 39 309 1.0 2.0 0.00 0.00 0.00 89 1015.2
20260508085900 40 261 1.0 2.0 0.00 0.00 0.00 89 1015.1
20260508085357 40 267 1.0 2.0 0.00 0.00 0.00 88 1015.0
20260508084854 40 292 2.0 2.0 0.00 0.00 0.00 88 1015.0
20260508084350 41 301 2.0 3.0 0.00 0.00 0.00 87 1015.2
20260508083848 41 301 1.0 2.0 0.00 0.00 0.00 85 1015.1
20260508083346 41 298 1.0 2.0 0.00 0.00 0.00 84 1015.1
20260508082845 41 256 1.0 2.0 0.00 0.00 0.00 82 1015.2
20260508082343 41 318 1.0 2.0 0.00 0.00 0.00 83 1015.3
20260508081840 41 299 1.0 2.0 0.00 0.00 0.00 83 1015.0
20260508081337 41 276 2.0 2.0 0.00 0.00 0.00 83 1015.1
20260508080834 41 294 2.0 2.0 0.00 0.00 0.00 83 1015.1
20260508080332 42 275 1.0 2.0 0.00 0.00 0.00 82 1015.1
20260508075828 42 267 2.0 2.0 0.00 0.00 0.00 81 1015.0
20260508075325 42 298 2.0 2.0 0.00 0.00 0.00 81 1015.0
20260508074823 42 294 2.0 2.0 0.00 0.00 0.00 79 1014.9
20260508074320 43 238 0.0 2.0 0.00 0.00 0.00 80 1015.0
20260508073817 43 249 1.0 2.0 0.00 0.00 0.00 81 1014.9
20260508073315 43 257 1.0 2.0 0.00 0.00 0.00 81 1014.8
20260508072811 42 242 0.0 2.0 0.00 0.00 0.00 82 1014.8
20260508072308 42 292 0.0 2.0 0.00 0.00 0.00 81 1014.9
20260508071805 42 301 0.0 2.0 0.00 0.00 0.00 81 1015.1
20260508071303 42 265 1.0 2.0 0.00 0.00 0.00 80 1015.0
20260508070800 42 244 0.0 2.0 0.00 0.00 0.00 81 1015.1
20260508070259 42 252 1.0 2.0 0.00 0.00 0.00 82 1015.2
20260508065756 42 297 2.0 2.0 0.00 0.00 0.00 81 1015.3
20260508065254 42 285 0.0 2.0 0.00 0.00 0.00 82 1015.6
20260508064752 42 303 2.0 3.0 0.00 0.00 0.00 83 1015.4
20260508064249 42 290 0.0 2.0 0.00 0.00 0.00 83 1015.6
20260508063746 42 300 2.0 2.0 0.00 0.00 0.00 82 1015.6
20260508063244 42 261 1.0 2.0 0.00 0.00 0.00 80 1015.8
20260508062741 43 278 0.0 2.0 0.00 0.00 0.00 79 1015.7
20260508062239 43 285 2.0 3.0 0.00 0.00 0.00 79 1015.8
20260508061735 44 254 1.0 2.0 0.00 0.00 0.00 80 1015.9
20260508061233 44 264 1.0 2.0 0.00 0.00 0.00 79 1015.8
20260508060729 44 276 0.0 2.0 0.00 0.00 0.00 77 1015.7
20260508060227 44 246 1.0 2.0 0.00 0.00 0.00 78 1015.8
20260508055722 44 245 0.0 3.0 0.00 0.00 0.00 81 1015.9
20260508055220 44 235 1.0 2.0 0.00 0.00 0.00 82 1015.9
20260508054716 43 228 0.0 2.0 0.00 0.00 0.00 85 1015.8
20260508054214 42 286 0.0 2.0 0.00 0.00 0.00 86 1015.8
20260508053710 42 281 1.0 2.0 0.00 0.00 0.00 88 1015.8
20260508053208 42 273 2.0 3.0 0.00 0.00 0.00 91 1015.7
20260508052705 42 309 0.0 2.0 0.00 0.00 0.00 94 1015.6
20260508052202 42 278 0.0 2.0 0.00 0.00 0.00 94 1015.7
20260508051658 41 267 0.0 3.0 0.00 0.00 0.00 94 1015.5
20260508051154 41 263 0.0 3.0 0.00 0.00 0.00 94 1015.3
20260508050650 41 319 1.0 2.0 0.00 0.00 0.00 94 1015.5
20260508050148 41 269 0.0 3.0 0.00 0.00 0.00 94 1015.7
20260508045643 41 274 0.0 3.0 0.00 0.00 0.00 94 1015.7
20260508045142 41 281 0.0 3.0 0.00 0.00 0.00 94 1015.6
20260508044638 41 285 0.0 2.0 0.00 0.00 0.00 94 1015.9
20260508044135 41 292 0.0 3.0 0.00 0.00 0.00 94 1015.8
20260508043631 41 279 2.0 2.0 0.00 0.00 0.00 94 1015.7
20260508043129 41 281 2.0 2.0 0.00 0.00 0.00 94 1015.9
20260508042625 41 269 0.0 3.0 0.00 0.00 0.00 94 1015.7
20260508042123 41 276 1.0 2.0 0.00 0.00 0.00 94 1015.5
20260508041619 41 279 0.0 3.0 0.00 0.00 0.00 94 1015.6
20260508041116 41 294 1.0 3.0 0.00 0.00 0.00 94 1015.6
20260508040612 41 262 1.0 3.0 0.00 0.00 0.00 94 1015.8
20260508040110 41 310 0.0 2.0 0.00 0.00 0.00 94 1015.8
20260508035607 41 294 0.0 2.0 0.00 0.00 0.00 94 1015.8
20260508035104 41 272 1.0 2.0 0.00 0.00 0.00 94 1015.7
20260508034601 41 285 0.0 2.0 0.00 0.00 0.00 94 1016.0
20260508034058 42 277 0.0 2.0 0.00 0.00 0.00 93 1015.8
20260508033555 42 273 0.0 3.0 0.00 0.00 0.00 93 1015.5
20260508033054 42 317 0.0 2.0 0.00 0.00 0.00 93 1015.6
20260508032549 42 264 1.0 2.0 0.00 0.00 0.00 93 1015.7
20260508032048 42 275 1.0 3.0 0.00 0.00 0.00 92 1015.7
20260508031544 42 302 2.0 2.0 0.00 0.00 0.00 92 1015.7
20260508031040 42 285 1.0 3.0 0.00 0.00 0.00 92 1016.0
20260508030537 42 280 0.0 2.0 0.00 0.00 0.00 92 1015.7
20260508030035 42 268 1.0 2.0 0.00 0.00 0.00 92 1015.7
20260508025530 42 299 2.0 2.0 0.00 0.00 0.00 91 1015.9
20260508025028 42 301 1.0 2.0 0.00 0.00 0.00 91 1015.6
20260508024524 42 310 1.0 3.0 0.00 0.00 0.00 90 1015.7
20260508024021 42 280 2.0 2.0 0.00 0.00 0.00 89 1015.8
20260508023517 43 290 1.0 2.0 0.00 0.00 0.00 88 1015.5
20260508023015 43 281 0.0 2.0 0.00 0.00 0.00 88 1015.5
20260508022510 43 279 1.0 2.0 0.00 0.00 0.00 87 1015.6
20260508022008 43 299 1.0 3.0 0.00 0.00 0.00 86 1015.6
20260508021503 43 282 1.0 2.0 0.00 0.00 0.00 85 1015.6
20260508020959 44 328 0.0 2.0 0.00 0.00 0.00 85 1015.6
20260508020457 44 297 2.0 2.0 0.00 0.00 0.00 83 1015.8
20260508015954 44 278 1.0 2.0 0.00 0.00 0.00 81 1015.6
20260508015452 45 256 0.0 2.0 0.00 0.00 0.00 81 1015.7
20260508014949 45 285 1.0 2.0 0.00 0.00 0.00 79 1015.4
20260508014445 45 282 2.0 2.0 0.00 0.00 0.00 77 1015.5
20260508013941 46 273 1.0 2.0 0.00 0.00 0.00 76 1015.4
20260508013437 46 287 2.0 3.0 0.00 0.00 0.00 75 1015.5
20260508012935 46 289 2.0 2.0 0.00 0.00 0.00 73 1015.4
20260508012432 47 280 1.0 2.0 0.00 0.00 0.00 71 1015.4
20260508011929 47 292 1.0 2.0 0.00 0.00 0.00 70 1015.4
20260508011427 48 269 0.0 2.0 0.00 0.00 0.00 67 1015.3
20260508010924 48 326 1.0 2.0 0.00 0.00 0.00 65 1015.2
20260508010421 49 271 0.0 2.0 0.00 0.00 0.00 60 1015.4
20260508005918 49 308 0.0 2.0 0.00 0.00 0.00 61 1015.2
20260508005415 50 268 0.0 2.0 0.00 0.00 0.00 58 1015.3
20260508004911 50 297 0.0 2.0 0.00 0.00 0.00 59 1015.3
20260508004408 51 264 0.0 2.0 0.00 0.00 0.00 58 1015.2
20260508003904 52 298 2.0 2.0 0.00 0.00 0.00 59 1015.1
20260508003401 52 238 1.0 2.0 0.00 0.00 0.00 56 1015.2
20260508002858 52 227 2.0 2.0 0.00 0.00 0.00 58 1015.1
20260508002355 53 221 2.0 2.0 0.00 0.00 0.00 61 1015.1
20260508001851 53 236 1.0 2.0 0.00 0.00 0.00 57 1015.0
20260508001347 54 237 0.0 2.0 0.00 0.00 0.00 54 1015.1
20260508000844 54 279 1.0 2.0 0.00 0.00 0.00 58 1014.9
20260508000342 54 221 0.0 2.0 0.00 0.00 0.00 56 1014.8
20260507235837 55 256 0.0 2.0 0.00 0.00 0.00 52 1014.9
20260507235335 55 290 1.0 3.0 0.00 0.00 0.00 48 1014.9
20260507234831 55 269 0.0 3.0 0.00 0.00 0.00 51 1014.7
20260507234328 56 248 1.0 2.0 0.00 0.00 0.00 50 1014.7
20260507233824 56 298 0.0 2.0 0.00 0.00 0.00 46 1014.6
20260507233322 57 237 2.0 3.0 0.00 0.00 0.00 48 1014.7
20260507232820 57 225 1.0 2.0 0.00 0.00 0.00 46 1014.7
20260507232316 57 312 3.0 4.0 0.00 0.00 0.00 42 1014.6
20260507231813 57 289 2.0 2.0 0.00 0.00 0.00 44 1014.5
20260507231310 57 244 1.0 4.0 0.00 0.00 0.00 50 1014.6
20260507230806 58 294 2.0 3.0 0.00 0.00 0.00 44 1014.6
20260507230304 58 154 2.0 4.0 0.00 0.00 0.00 40 1014.8
20260507225803 58 236 1.0 2.0 0.00 0.00 0.00 43 1014.7
20260507225259 58 278 2.0 4.0 0.00 0.00 0.00 46 1014.6
20260507224755 59 209 4.0 4.0 0.00 0.00 0.00 42 1014.7
20260507224253 59 147 2.0 6.0 0.00 0.00 0.00 40 1014.6
20260507223749 59 211 2.0 3.0 0.00 0.00 0.00 40 1014.6
20260507223245 59 192 2.0 4.0 0.00 0.00 0.00 39 1014.7
20260507222742 59 301 2.0 4.0 0.00 0.00 0.00 39 1014.7
20260507222238 59 323 2.0 5.0 0.00 0.00 0.00 43 1014.9
20260507221736 60 136 1.0 4.0 0.00 0.00 0.00 39 1014.6
20260507221231 60 269 1.0 4.0 0.00 0.00 0.00 43 1014.7
20260507220728 60 235 0.0 4.0 0.00 0.00 0.00 39 1014.7
20260507220227 60 258 2.0 8.0 0.00 0.00 0.00 38 1014.8
20260507215722 60 341 2.0 4.0 0.00 0.00 0.00 41 1014.8
20260507215220 61 168 6.0 6.0 0.00 0.00 0.00 35 1014.7
20260507214717 60 277 2.0 5.0 0.00 0.00 0.00 37 1014.6
20260507214214 60 187 3.0 4.0 0.00 0.00 0.00 37 1014.8
20260507213709 60 166 4.0 6.0 0.00 0.00 0.00 38 1014.8
20260507213207 60 29 2.0 4.0 0.00 0.00 0.00 41 1014.8
20260507212703 60 169 4.0 4.0 0.00 0.00 0.00 38 1014.7
20260507212200 60 289 2.0 7.0 0.00 0.00 0.00 39 1014.9
20260507211657 60 198 3.0 4.0 0.00 0.00 0.00 40 1014.9
20260507211152 60 336 2.0 4.0 0.00 0.00 0.00 39 1014.8
20260507210650 60 269 1.0 4.0 0.00 0.00 0.00 41 1014.6
20260507210146 59 230 7.0 11.0 0.00 0.00 0.00 38 1014.6